Regional Weather Roundup
Issued by NWS

Home | Current Version | Previous Version | Graphics & Text | Print | Product List | Glossary On
Versions: 1 2 3 4 5 6 7 8 9 10 11 12 13 14 15 16 17 18 19 20 21 22 23 24 25 26 27 28 29 30 31 32 33 34 35 36 37 38 39 40 41 42 43 44 45 46 47 48 49 50
000
ASUS45 KBOI 291410
RWRID
WEATHER ROUNDUP FOR IDAHO
NATIONAL WEATHER SERVICE BOISE ID
800 AM MDT TUE JUL 29 2014

NOTE: "FAIR" INDICATES FEW OR NO CLOUDS BELOW 12000 FEET
WITH NO SIGNIFICANT WEATHER AND/OR OBSTRUCTIONS TO VISIBILITY

IDZ012-014-291500-
SOUTHWEST IDAHO


CITY           SKY/WX    TMP DP  RH WIND       PRES   REMARKS
BOISE          PTSUNNY   76  50  40 CALM      30.11R
CALDWELL       PTSUNNY   70  48  46 E7        30.11R
MOUNTAIN HOME  SUNNY     73  55  54 N2        30.13R
$$

IDZ016-017-291500-
SOUTHCENTRAL IDAHO


CITY           SKY/WX    TMP DP  RH WIND       PRES   REMARKS
BURLEY         MOSUNNY   63  57  81 CALM      30.18R
JEROME         MOSUNNY   70  55  59 E13       30.18R
TWIN FALLS     PTSUNNY   68  56  65 E7        30.18R
$$

IDZ019>023-291500-
SOUTHEAST IDAHO


CITY           SKY/WX    TMP DP  RH WIND       PRES   REMARKS
IDAHO FALLS    LGT RAIN  62  58  86 N7        30.23R
POCATELLO      PTSUNNY   64  62  93 CALM      30.22S
REXBURG        CLOUDY    65  52  62 N7        30.23S
$$

IDZ006-010-011-018-031-032-291500-
CENTRAL IDAHO MOUNTAINS


CITY           SKY/WX    TMP DP  RH WIND       PRES   REMARKS
MCCALL         PTSUNNY   60  52  74 VRB3      30.25R
HAILEY         MOSUNNY   61  46  59 W12       30.29R
STANLEY          N/A     45  43  93 E5        30.40R
SALMON         SUNNY     55  48  76 CALM      30.24S
CHALLIS        SUNNY     58  45  62 CALM      30.30R
$$

IDZ002-004-006-007-026-291500-
NORTHERN IDAHO


CITY           SKY/WX    TMP DP  RH WIND       PRES   REMARKS
LEWISTON       LGT RAIN  73  51  46 E5        30.06R
LOWELL           N/A     60  55  83 N3        30.13R
COEUR D`ALENE  SUNNY     66  54  63 E9        30.10S
MULLAN PASS    SUNNY     69  40  34 SE6       30.34R
$$



USA.gov is the U.S. government's official web portal to all federal, state and local government web resources and services.